Tekamah, NE

6:42 AM CDT on September 23, 2017 (GMT -0500)
Tekamah

Weather History for KTQE - April, 2014

Change the Weather History Date:

Monday, April 7, 2014

  Actual Average Record
Temperature  
Mean Temperature 52 °F -  
Max Temperature 68 °F 64 °F 90 °F (1991)
Min Temperature 37 °F 37 °F 17 °F (2007)
Degree Days  
Heating Degree Days 14    
Growing Degree Days 2 (Base 50)    
Moisture  
Dew Point 34 °F    
Average Humidity 58    
Maximum Humidity 86    
Minimum Humidity 23    
Precipitation  
Precipitation 0.00 in - - ()
Sea Level Pressure  
Sea Level Pressure 29.83 in    
Wind  
Wind Speed 8 mph (NNW)    
Max Wind Speed 28 mph    
Max Gust Speed 32 mph    
Visibility 10 miles    
Events Rain    
Averages and records for this station are not official NWS values.
T = Trace of Precipitation, MM = Missing Value Source: NWS Daily Summary

Daily Weather History Graph

Daily Weather History Graph

Search for Another Location

Airport or City:

Trip Planner

Search our weather history database for the weather conditions in past years. The results will help you decide how hot, cold, wet, or windy it might be!

Date:

Astronomy

Apr. 07, 2014 Rise Set
Actual Time 6:57 AM CDT 7:56 PM CDT
Civil Twilight 6:29 AM CDT 8:25 PM CDT
Nautical Twilight 5:55 AM CDT 8:59 PM CDT
Astronomical Twilight 5:20 AM CDT 9:34 PM CDT
Moon 12:52 PM CDT (4/7) 2:37 AM CDT (4/7)
Length of Visible Light 13h 56m
Length of Day
12h 59m
First Quarter, 53% of the Moon is Illuminated
Apr 7
First Quarter
Apr 15
Full
Apr 22
Last Quarter
Apr 29
New
May 6
First Quarter

Hourly Weather History & Observations

Time (CDT) Temp. Windchill Dew Point Humidity Pressure Visibility Wind Dir Wind Speed Gust Speed Precip Events Conditions
12:54 AM 41.0 °F - 33.1 °F 73% 29.84 in 10.0 mi Calm Calm - N/A   Scattered Clouds
1:54 AM 37.9 °F - 30.9 °F 76% 29.81 in 10.0 mi Calm Calm - N/A   Clear
2:54 AM 37.9 °F - 32.0 °F 79% 29.79 in 10.0 mi Calm Calm - N/A   Overcast
3:54 AM 39.0 °F 34.8 °F 34.0 °F 82% 29.78 in 10.0 mi WSW 5.8 mph - N/A   Overcast
4:54 AM 41.0 °F 36.4 °F 35.1 °F 79% 29.78 in 10.0 mi West 6.9 mph - N/A   Mostly Cloudy
5:54 AM 45.0 °F 39.3 °F 39.0 °F 80% 29.78 in 10.0 mi WNW 11.5 mph - N/A   Mostly Cloudy
6:54 AM 46.9 °F - 39.0 °F 74% 29.79 in 10.0 mi NW 6.9 mph - N/A   Overcast
7:54 AM 46.9 °F - 41.0 °F 80% 29.81 in 8.0 mi NNW 8.1 mph - 0.00 in Rain Light Rain
8:54 AM 46.0 °F - 42.1 °F 86% 29.83 in 10.0 mi Calm Calm - 0.00 in   Overcast
9:54 AM 53.1 °F - 44.1 °F 71% 29.83 in 10.0 mi Variable 5.8 mph - N/A   Overcast
10:54 AM 55.9 °F - 39.0 °F 53% 29.84 in 10.0 mi NNW 13.8 mph - N/A   Overcast
11:54 AM 62.1 °F - 37.0 °F 39% 29.83 in 10.0 mi North 17.3 mph 23.0 mph N/A   Clear
12:54 PM 63.0 °F - 35.1 °F 35% 29.81 in 10.0 mi NNW 15.0 mph 24.2 mph N/A   Mostly Cloudy
1:54 PM 66.0 °F - 28.9 °F 25% 29.79 in 10.0 mi NNW 18.4 mph 27.6 mph N/A   Clear
3:54 PM 66.0 °F - 27.0 °F 23% 29.77 in 10.0 mi North 20.7 mph 26.5 mph N/A   Mostly Cloudy
4:54 PM 66.0 °F - 28.0 °F 24% 29.78 in 10.0 mi NNW 20.7 mph 28.8 mph N/A   Scattered Clouds
5:54 PM 62.1 °F - 33.1 °F 34% 29.80 in 10.0 mi North 27.6 mph 32.2 mph N/A   Scattered Clouds
6:54 PM 59.0 °F - 33.1 °F 38% 29.83 in 10.0 mi North 21.9 mph 31.1 mph N/A   Overcast
7:54 PM 55.9 °F - 34.0 °F 44% 29.85 in 10.0 mi North 16.1 mph - N/A   Overcast
8:54 PM 50.0 °F - 34.0 °F 54% 29.89 in 10.0 mi NNW 10.4 mph - N/A   Partly Cloudy
9:54 PM 42.1 °F 37.1 °F 30.9 °F 65% 29.91 in 10.0 mi NW 8.1 mph - N/A   Clear
10:54 PM 44.1 °F 38.1 °F 30.9 °F 60% 29.91 in 10.0 mi NW 11.5 mph - N/A   Clear
11:54 PM 48.9 °F - 32.0 °F 52% 29.93 in 10.0 mi NNW 15.0 mph - N/A   Overcast